Weather History for KJEF - February, 2014

Change the Weather History Date:

Friday, February 21, 2014

  Actual Average Record
Temperature  
Mean Temperature 46 °F -  
Max Temperature 57 °F 51 °F 79 °F (1935)
Min Temperature 33 °F 26 °F 2 °F (1960)
Degree Days  
Heating Degree Days 20    
Moisture  
Dew Point 15 °F    
Average Humidity 34    
Maximum Humidity 61    
Minimum Humidity 16    
Precipitation  
Precipitation 0.00 in - - ()
Sea Level Pressure  
Sea Level Pressure 29.87 in    
Wind  
Wind Speed 14 mph (WSW)    
Max Wind Speed 22 mph    
Max Gust Speed 30 mph    
Visibility 10 miles    
Events      
Averages and records for this station are not official NWS values.
T = Trace of Precipitation, MM = Missing Value Source: NWS Daily Summary

Daily Weather History Graph

Daily Weather History Graph

Search for Another Location

Airport or City:

Trip Planner

Search our weather history database for the weather conditions in past years. The results will help you decide how hot, cold, wet, or windy it might be!

Date:

Astronomy

Feb. 21, 2014 Rise Set
Actual Time 6:51 AM CST 5:53 PM CST
Civil Twilight 6:24 AM CST 6:20 PM CST
Nautical Twilight 5:54 AM CST 6:51 PM CST
Astronomical Twilight 5:23 AM CST 7:21 PM CST
Moon No Moon Rise 10:20 AM CST (2/21)
Length of Visible Light 11h 55m
Length of Day
11h 01m
Waning Gibbous, 60% of the Moon is Illuminated
Feb 21
Waning Gibbous
Feb 22
Last Quarter
Mar 1
New
Mar 8
First Quarter
Mar 16
Full

Hourly Weather History & Observations

Time (CST) Temp. Windchill Dew Point Humidity Pressure Visibility Wind Dir Wind Speed Gust Speed Precip Events Conditions
12:53 AM 37.9 °F 27.9 °F 19.9 °F 48% 29.75 in 10.0 mi West 19.6 mph - N/A   Clear
1:53 AM 37.0 °F 26.7 °F 18.0 °F 46% 29.78 in 10.0 mi West 19.6 mph 26.5 mph N/A   Clear
2:53 AM 36.0 °F 26.0 °F 17.1 °F 46% 29.81 in 10.0 mi West 17.3 mph - N/A   Clear
3:53 AM 36.0 °F 26.0 °F 16.0 °F 44% 29.85 in 10.0 mi West 17.3 mph 28.8 mph N/A   Clear
4:53 AM 34.0 °F 24.6 °F 12.0 °F 40% 29.88 in 10.0 mi West 13.8 mph - N/A   Clear
5:53 AM 34.0 °F 25.5 °F 12.9 °F 42% 29.91 in 10.0 mi WSW 11.5 mph - N/A   Clear
6:53 AM 35.1 °F 26.9 °F 14.0 °F 42% 29.92 in 10.0 mi West 11.5 mph - N/A   Clear
7:53 AM 36.0 °F 29.0 °F 16.0 °F 44% 29.94 in 10.0 mi West 9.2 mph 18.4 mph N/A   Clear
8:53 AM 39.0 °F 31.0 °F 18.0 °F 43% 29.94 in 10.0 mi West 13.8 mph - N/A   Clear
9:53 AM 42.1 °F 35.7 °F 19.0 °F 40% 29.94 in 10.0 mi West 11.5 mph - N/A   Clear
10:53 AM 45.0 °F 38.9 °F 14.0 °F 29% 29.94 in 10.0 mi West 12.7 mph - N/A   Clear
11:53 AM 48.0 °F - 14.0 °F 26% 29.92 in 10.0 mi WSW 12.7 mph - N/A   Clear
12:53 PM 51.1 °F - 14.0 °F 23% 29.88 in 10.0 mi WSW 15.0 mph 25.3 mph N/A   Clear
1:53 PM 54.0 °F - 10.9 °F 18% 29.83 in 10.0 mi SW 19.6 mph 28.8 mph N/A   Clear
2:53 PM 57.0 °F - 12.0 °F 17% 29.80 in 10.0 mi SW 16.1 mph 25.3 mph N/A   Clear
3:53 PM 57.9 °F - 12.9 °F 17% 29.81 in 10.0 mi SW 15.0 mph - N/A   Clear
4:53 PM 57.9 °F - 10.9 °F 16% 29.80 in 10.0 mi SW 21.9 mph 29.9 mph N/A   Clear
5:53 PM 55.9 °F - 12.0 °F 18% 29.82 in 10.0 mi SW 13.8 mph 23.0 mph N/A   Clear
6:53 PM 53.1 °F - 14.0 °F 21% 29.83 in 10.0 mi SW 9.2 mph - N/A   Clear
7:53 PM 52.0 °F - 15.1 °F 23% 29.85 in 10.0 mi SW 6.9 mph - N/A   Scattered Clouds
8:53 PM 51.1 °F - 16.0 °F 25% 29.88 in 10.0 mi WSW 5.8 mph - N/A   Overcast
9:53 PM 45.0 °F - 19.0 °F 36% 29.91 in 10.0 mi Calm Calm - N/A   Clear
10:53 PM 37.9 °F - 21.0 °F 51% 29.92 in 10.0 mi Calm Calm - N/A   Clear
11:53 PM 33.1 °F - 21.0 °F 61% 29.92 in 10.0 mi Calm Calm - N/A   Clear